FW8740 Weather Reports


time (UTC)temp
C
wind
direction
speed
KPH
gust
KPH
rain 1hr
cm
rain 24hr
cm
rain mn
cm
humidity
%
barometer
mb
20260510231349 17 128 0.0 1.6 0.00 0.03 0.03 80 1016.8
20260510230845 17 128 0.0 0.0 0.00 0.03 0.03 79 1016.6
20260510230340 17 134 0.0 1.6 0.00 0.03 0.03 78 1016.6
20260510225838 17 125 0.0 4.8 0.00 0.03 0.03 77 1016.8
20260510225333 17 88 0.0 1.6 0.00 0.03 0.03 78 1016.7
20260510224829 17 63 1.6 1.6 0.00 0.03 0.03 78 1016.6
20260510224326 17 97 1.6 1.6 0.00 0.03 0.03 79 1016.6
20260510223823 17 44 1.6 1.6 0.00 0.03 0.03 79 1016.3
20260510223320 17 91 0.0 1.6 0.00 0.03 0.03 80 1016.6
20260510222817 18 299 3.2 4.8 0.00 0.03 0.03 82 1016.4
20260510222314 17 42 3.2 4.8 0.00 0.03 0.03 82 1016.2
20260510221809 18 102 0.0 1.6 0.00 0.03 0.03 83 1015.9
20260510221306 17 90 0.0 3.2 0.00 0.03 0.03 85 1016.1
20260510220803 17 60 1.6 3.2 0.00 0.03 0.03 86 1016.3
20260510220258 17 90 0.0 1.6 0.00 0.03 0.03 87 1016.2
20260510215755 17 303 8.0 8.0 0.00 0.03 0.03 87 1016.3
20260510215253 17 16 1.6 3.2 0.00 0.03 0.03 88 1016.6
20260510214750 17 111 0.0 0.0 0.00 0.03 0.03 88 1016.6
20260510214247 17 111 0.0 0.0 0.00 0.03 0.03 88 1016.0
20260510213744 17 112 0.0 0.0 0.00 0.03 0.03 87 1016.3
20260510213241 17 112 0.0 0.0 0.00 0.03 0.03 87 1016.3
20260510212737 18 112 0.0 0.0 0.00 0.03 0.03 87 1016.2
20260510212234 18 112 0.0 0.0 0.00 0.03 0.03 87 1016.2
20260510211731 18 112 0.0 0.0 0.00 0.03 0.03 87 1016.0
20260510211226 18 111 0.0 0.0 0.00 0.03 0.03 86 1015.9
20260510210722 17 112 0.0 0.0 0.00 0.03 0.03 86 1016.0
20260510210217 18 111 0.0 0.0 0.00 0.03 0.03 86 1015.9
20260510205712 18 112 0.0 0.0 0.00 0.03 0.03 86 1015.7
20260510205207 18 111 0.0 0.0 0.00 0.03 0.03 85 1015.8
20260510204703 18 111 0.0 0.0 0.00 0.03 0.03 85 1015.8
20260510204200 18 112 0.0 0.0 0.00 0.03 0.03 85 1015.5
20260510203657 18 111 0.0 0.0 0.00 0.03 0.03 84 1016.0
20260510203155 18 112 0.0 0.0 0.00 0.03 0.03 84 1015.7
20260510202654 18 112 0.0 1.6 0.00 0.03 0.03 84 1015.6
20260510202149 19 112 0.0 0.0 0.00 0.03 0.03 83 1015.7
20260510201647 19 124 0.0 1.6 0.00 0.03 0.03 84 1015.8
20260510201144 18 124 0.0 1.6 0.00 0.03 0.03 84 1015.5
20260510200640 18 121 0.0 3.2 0.00 0.03 0.03 84 1015.8
20260510200138 18 145 1.6 1.6 0.00 0.03 0.03 84 1015.9
20260510195635 18 131 0.0 1.6 0.00 0.03 0.03 85 1015.8
20260510195131 18 145 1.6 3.2 0.00 0.03 0.03 85 1015.7
20260510194630 18 250 4.8 4.8 0.00 0.03 0.03 85 1015.5
20260510194127 18 144 3.2 3.2 0.00 0.03 0.03 85 1015.5
20260510193622 18 151 3.2 4.8 0.00 0.03 0.03 85 1015.7
20260510193118 18 191 1.6 3.2 0.00 0.03 0.03 86 1015.6
20260510192614 17 203 3.2 3.2 0.00 0.03 0.03 86 1015.8
20260510192109 17 157 1.6 8.0 0.00 0.03 0.03 85 1015.8
20260510191606 18 150 3.2 4.8 0.00 0.03 0.03 85 1015.8
20260510191102 17 110 1.6 3.2 0.00 0.03 0.03 85 1016.1
20260510190600 18 115 1.6 4.8 0.00 0.03 0.03 84 1015.8
20260510190057 18 148 1.6 3.2 0.00 0.03 0.03 83 1016.0
20260510185554 19 162 1.6 4.8 0.00 0.03 0.03 82 1016.0
20260510185051 20 161 1.6 3.2 0.00 0.03 0.03 81 1016.2
20260510184549 20 89 0.0 1.6 0.00 0.03 0.03 82 1016.2
20260510184044 20 134 0.0 1.6 0.00 0.03 0.03 83 1016.2
20260510183539 20 88 0.0 1.6 0.00 0.03 0.03 83 1016.0
20260510183035 20 100 1.6 1.6 0.00 0.03 0.03 85 1016.0
20260510182532 20 8 3.2 4.8 0.00 0.03 0.03 85 1016.2
20260510182027 19 258 3.2 3.2 0.00 0.03 0.03 87 1016.0
20260510181525 19 74 0.0 1.6 0.00 0.03 0.03 88 1016.0
20260510181021 19 336 4.8 4.8 0.00 0.03 0.03 89 1016.1
20260510180518 18 100 0.0 1.6 0.00 0.03 0.03 90 1016.1
20260510180016 18 74 1.6 3.2 0.00 0.03 0.03 91 1016.2
20260510175510 18 106 1.6 4.8 0.00 0.03 0.03 91 1016.0
20260510175007 18 49 1.6 3.2 0.00 0.03 0.03 91 1016.1
20260510174505 18 341 1.6 9.7 0.00 0.03 0.03 91 1016.0
20260510174001 18 87 1.6 3.2 0.00 0.03 0.03 92 1016.2
20260510173457 18 234 1.6 3.2 0.00 0.03 0.03 92 1016.1
20260510172954 17 83 1.6 9.7 0.00 0.03 0.03 92 1016.1
20260510172449 17 77 1.6 3.2 0.00 0.03 0.03 93 1016.0
20260510171946 16 256 1.6 3.2 0.00 0.03 0.03 93 1016.1
20260510171443 17 187 1.6 3.2 0.00 0.03 0.03 92 1016.3
20260510170939 16 100 1.6 1.6 0.00 0.03 0.03 93 1016.1
20260510170436 16 85 1.6 3.2 0.00 0.03 0.03 94 1016.4
20260510165932 16 251 1.6 3.2 0.00 0.03 0.03 94 1016.7
20260510165428 15 162 1.6 3.2 0.00 0.03 0.03 94 1016.8
20260510164925 15 98 0.0 3.2 0.00 0.03 0.03 94 1016.7
20260510164422 15 92 1.6 1.6 0.00 0.03 0.03 94 1016.6
20260510163917 14 161 1.6 3.2 0.00 0.03 0.03 94 1016.6
20260510163413 14 129 1.6 1.6 0.00 0.03 0.03 95 1016.7
20260510162908 13 136 0.0 4.8 0.00 0.03 0.03 96 1016.7
20260510162406 13 145 1.6 1.6 0.00 0.03 0.03 96 1016.6
20260510161901 13 126 0.0 1.6 0.00 0.03 0.03 96 1016.7
20260510161357 13 143 1.6 1.6 0.00 0.03 0.03 96 1016.6
20260510160854 13 230 1.6 3.2 0.00 0.03 0.03 96 1016.6
20260510160351 13 96 1.6 1.6 0.00 0.03 0.03 96 1016.4
20260510155850 13 143 0.0 1.6 0.00 0.03 0.03 96 1016.7
20260510155347 13 140 0.0 1.6 0.00 0.03 0.03 96 1016.9
20260510154843 13 165 1.6 1.6 0.00 0.03 0.03 96 1016.7
20260510154339 13 150 1.6 1.6 0.00 0.03 0.03 96 1016.9
20260510153833 13 143 1.6 1.6 0.00 0.03 0.03 96 1016.8
20260510153330 12 96 0.0 1.6 0.00 0.03 0.03 96 1017.0
20260510152827 12 131 0.0 1.6 0.00 0.03 0.03 96 1016.9
20260510152324 12 131 0.0 1.6 0.00 0.03 0.03 96 1017.0
20260510151820 12 100 0.0 0.0 0.00 0.03 0.03 96 1016.9
20260510151318 12 123 0.0 1.6 0.00 0.03 0.03 96 1016.7
20260510150814 12 140 0.0 1.6 0.00 0.03 0.03 96 1016.9
20260510150309 12 124 0.0 0.0 0.00 0.03 0.03 96 1017.1
20260510145806 12 134 0.0 1.6 0.00 0.03 0.03 96 1017.0
20260510145305 12 158 1.6 1.6 0.00 0.03 0.03 96 1017.0
20260510144759 12 199 1.6 1.6 0.00 0.03 0.03 96 1016.9
20260510144256 12 138 1.6 1.6 0.00 0.03 0.03 96 1017.0
20260510143756 12 115 0.0 3.2 0.00 0.03 0.03 96 1016.8
20260510143252 12 85 0.0 3.2 0.00 0.03 0.03 96 1016.9
20260510142749 12 125 0.0 3.2 0.00 0.03 0.03 96 1016.9
20260510142245 12 136 1.6 1.6 0.00 0.03 0.03 96 1016.8
20260510141742 12 130 0.0 1.6 0.00 0.03 0.03 96 1016.7
20260510141241 12 143 1.6 1.6 0.00 0.03 0.03 96 1016.6
20260510140737 11 115 0.0 0.0 0.00 0.03 0.03 96 1016.3
20260510140232 11 115 0.0 0.0 0.00 0.03 0.03 96 1016.4
20260510135726 11 117 0.0 0.0 0.00 0.03 0.03 96 1016.3
20260510135222 11 97 0.0 0.0 0.00 0.03 0.03 96 1016.6
20260510134720 11 223 3.2 3.2 0.00 0.03 0.03 96 1016.4
20260510134217 11 121 0.0 1.6 0.00 0.03 0.03 96 1016.6
20260510133712 11 134 0.0 1.6 0.00 0.03 0.03 96 1016.6
20260510133208 11 134 1.6 1.6 0.00 0.03 0.03 96 1016.3
20260510132705 11 220 3.2 3.2 0.00 0.03 0.03 96 1016.4
20260510132202 11 141 0.0 1.6 0.00 0.03 0.03 96 1016.6
20260510131700 11 120 0.0 0.0 0.00 0.03 0.03 96 1016.1
20260510131157 11 112 0.0 1.6 0.00 0.03 0.03 96 1016.1
20260510130653 11 146 1.6 1.6 0.00 0.03 0.03 96 1016.2
20260510130150 11 119 0.0 0.0 0.00 0.03 0.03 96 1016.2
20260510125647 11 125 0.0 1.6 0.00 0.03 0.03 96 1016.0
20260510125143 11 122 0.0 0.0 0.00 0.03 0.03 96 1016.0
20260510124640 11 116 0.0 0.0 0.00 0.03 0.03 96 1016.1
20260510124137 11 117 0.0 0.0 0.00 0.03 0.03 96 1016.0
20260510123632 11 117 0.0 0.0 0.00 0.03 0.03 96 1016.0
20260510123128 11 119 0.0 1.6 0.00 0.03 0.03 96 1015.9
20260510122625 11 106 0.0 0.0 0.00 0.03 0.03 96 1015.8
20260510122121 11 119 0.0 0.0 0.00 0.03 0.03 96 1015.9
20260510121618 10 120 0.0 0.0 0.00 0.03 0.03 96 1015.9
20260510121115 10 25 1.6 3.2 0.00 0.03 0.03 96 1015.8
20260510120613 11 112 0.0 0.0 0.00 0.03 0.03 96 1015.8
20260510120108 11 138 0.0 1.6 0.00 0.03 0.03 96 1015.6
20260510115605 11 99 0.0 0.0 0.00 0.03 0.03 96 1015.8
20260510115102 10 98 0.0 0.0 0.00 0.03 0.03 96 1015.8
20260510114558 10 90 1.6 1.6 0.00 0.03 0.03 96 1015.6
20260510114054 10 124 0.0 3.2 0.00 0.03 0.03 96 1015.5
20260510113549 10 127 1.6 3.2 0.00 0.03 0.03 96 1015.5
20260510113047 10 130 1.6 3.2 0.00 0.03 0.03 96 1015.3
20260510112544 10 118 1.6 3.2 0.00 0.03 0.03 96 1015.1
20260510112040 10 115 0.0 1.6 0.00 0.03 0.03 96 1015.1
20260510111537 10 113 1.6 3.2 0.00 0.03 0.03 96 1015.1
20260510111033 10 141 1.6 3.2 0.00 0.03 0.03 96 1015.0
20260510110529 10 155 1.6 3.2 0.00 0.03 0.03 96 1014.9
20260510110026 10 120 1.6 1.6 0.00 0.03 0.03 96 1014.9
20260510105520 10 146 3.2 3.2 0.00 0.03 0.03 96 1015.1
20260510105016 10 124 0.0 1.6 0.00 0.03 0.03 96 1014.9
20260510104513 10 130 1.6 3.2 0.00 0.03 0.03 96 1014.8
20260510104009 10 123 0.0 0.0 0.00 0.03 0.03 96 1014.9
20260510103506 10 151 0.0 1.6 0.00 0.03 0.03 96 1015.1
20260510103002 10 162 1.6 1.6 0.00 0.03 0.03 96 1015.2
20260510102458 10 117 0.0 0.0 0.00 0.03 0.03 96 1015.0
20260510101954 10 118 0.0 0.0 0.00 0.03 0.03 96 1015.0
20260510101452 10 124 0.0 1.6 0.00 0.03 0.03 96 1014.8
20260510100951 10 123 0.0 1.6 0.00 0.03 0.03 96 1014.9
20260510100446 10 132 1.6 3.2 0.00 0.03 0.03 96 1015.3
20260510095943 10 129 0.0 1.6 0.00 0.03 0.03 96 1015.1
20260510095439 10 129 0.0 0.0 0.00 0.03 0.03 96 1014.9
20260510094938 10 132 0.0 0.0 0.00 0.03 0.03 95 1014.9
20260510094433 10 116 0.0 0.0 0.00 0.03 0.03 96 1015.2
20260510093929 10 116 0.0 1.6 0.00 0.03 0.03 95 1015.0
20260510093424 10 133 0.0 1.6 0.00 0.03 0.03 96 1015.1
20260510092921 10 145 1.6 1.6 0.00 0.03 0.03 95 1015.2
20260510092418 10 126 0.0 0.0 0.00 0.03 0.03 95 1015.5
20260510091913 10 133 0.0 1.6 0.00 0.03 0.03 95 1015.4
20260510091410 10 119 0.0 0.0 0.00 0.03 0.03 95 1015.5
20260510090907 10 116 0.0 0.0 0.00 0.03 0.03 95 1015.5
20260510090403 10 117 0.0 0.0 0.00 0.03 0.03 95 1015.4
20260510085859 10 116 0.0 0.0 0.00 0.03 0.03 95 1015.2
20260510085354 10 124 0.0 0.0 0.00 0.03 0.03 95 1015.4
20260510084850 10 128 1.6 1.6 0.00 0.03 0.03 95 1015.3
20260510084347 10 118 0.0 1.6 0.00 0.03 0.03 95 1015.0
20260510083844 10 85 0.0 1.6 0.00 0.03 0.03 95 1015.4
20260510083341 10 100 0.0 1.6 0.00 0.03 0.03 95 1015.4
20260510082836 10 104 0.0 1.6 0.00 0.03 0.03 95 1015.3
20260510082334 10 85 1.6 1.6 0.00 0.03 0.03 95 1015.5
20260510081832 10 81 0.0 0.0 0.00 0.03 0.03 95 1015.3
20260510081329 10 79 1.6 1.6 0.00 0.03 0.03 95 1015.3
20260510080824 10 133 1.6 1.6 0.00 0.03 0.03 95 1015.0
20260510080319 10 70 1.6 1.6 0.00 0.03 0.03 95 1015.1
20260510075817 10 102 0.0 0.0 0.00 0.03 0.03 95 1014.4
20260510075314 10 123 1.6 1.6 0.00 0.03 0.03 95 1014.4
20260510074811 10 105 0.0 0.0 0.00 0.03 0.03 95 1014.2
20260510074308 10 107 0.0 0.0 0.00 0.03 0.03 95 1014.5
20260510073804 10 112 0.0 0.0 0.00 0.03 0.03 95 1014.4
20260510073300 10 107 0.0 0.0 0.00 0.03 0.03 95 1014.3
20260510072756 10 99 0.0 0.0 0.00 0.03 0.03 95 1014.6
20260510072252 10 99 0.0 0.0 0.00 0.03 0.03 95 1014.4
20260510071749 10 106 0.0 0.0 0.00 0.03 0.03 95 1014.7
20260510071246 10 107 0.0 1.6 0.00 0.03 0.03 95 1014.6
20260510070744 10 105 0.0 0.0 0.00 0.03 0.03 95 1014.6
20260510070241 10 115 1.6 1.6 0.00 0.03 0.03 95 1014.5
20260510065741 10 106 0.0 0.0 0.00 0.03 0.03 95 1014.4
20260510065238 10 106 0.0 1.6 0.00 0.03 0.03 95 1014.4
20260510064734 10 99 0.0 0.0 0.00 0.03 0.03 95 1014.3
20260510064232 10 101 0.0 0.0 0.00 0.03 0.03 95 1014.8
20260510063728 10 103 0.0 0.0 0.00 0.03 0.03 95 1014.5
20260510063225 10 95 0.0 1.6 0.18 0.03 0.03 95 1014.6
20260510062721 10 99 0.0 0.0 0.18 0.03 0.03 95 1014.6
20260510062217 10 112 0.0 0.0 0.00 0.00 0.00 95 1014.5
20260510061713 10 116 0.0 0.0 0.00 0.00 0.00 95 1014.5
20260510061210 10 117 0.0 0.0 0.00 0.00 0.00 95 1014.3
20260510060706 10 118 0.0 0.0 0.00 0.00 0.00 95 1014.4
20260510060203 10 119 0.0 0.0 0.00 0.00 0.00 95 1014.2
20260510055659 10 120 0.0 0.0 0.00 0.00 0.00 95 1014.3
20260510055157 10 138 1.6 1.6 0.00 0.00 0.00 95 1014.4
20260510054653 10 133 0.0 1.6 0.00 0.00 0.00 95 1014.5
20260510054149 10 130 0.0 1.6 0.00 0.00 0.00 95 1014.2
20260510053648 10 119 0.0 0.0 0.00 0.00 0.00 95 1014.2
20260510053145 10 125 0.0 1.6 0.00 0.00 0.00 95 1014.3
20260510052641 10 121 0.0 0.0 0.00 0.00 0.00 95 1014.2
20260510052137 10 107 0.0 0.0 0.00 0.00 0.00 95 1014.4
20260510051633 10 106 0.0 0.0 0.00 0.00 0.00 95 1014.4
20260510051130 10 106 0.0 1.6 0.00 0.00 0.00 95 1014.5
20260510050627 10 106 0.0 0.0 0.00 0.00 0.00 95 1014.5
20260510050124 10 127 0.0 0.0 0.00 0.00 0.00 95 1014.5
20260510045621 10 127 0.0 0.0 0.00 0.00 0.00 95 1014.8
20260510045117 10 119 0.0 0.0 0.00 0.00 0.00 95 1014.4
20260510044613 10 119 0.0 0.0 0.00 0.00 0.00 95 1014.4
20260510044111 10 119 0.0 0.0 0.00 0.00 0.00 95 1014.5
20260510043606 10 119 0.0 0.0 0.00 0.00 0.00 95 1014.5
20260510043103 10 119 0.0 0.0 0.00 0.00 0.00 95 1014.4
20260510042601 10 119 0.0 0.0 0.00 0.00 0.00 95 1014.3
20260510042057 10 111 0.0 0.0 0.00 0.00 0.00 95 1014.1
20260510041554 10 110 0.0 0.0 0.00 0.00 0.00 95 1014.5
20260510041051 10 110 0.0 0.0 0.00 0.00 0.00 95 1014.5
20260510040548 10 109 0.0 0.0 0.00 0.00 0.00 95 1014.5
20260510040044 10 109 0.0 0.0 0.00 0.00 0.00 95 1014.2
20260510035540 10 109 0.0 0.0 0.00 1.65 1.65 95 1014.2
20260510035040 10 109 0.0 0.0 0.00 1.65 1.65 95 1014.1
20260510034539 10 110 0.0 0.0 0.00 1.65 1.65 95 1014.2
20260510034035 10 110 0.0 0.0 0.00 1.65 1.65 95 1014.1
20260510033531 10 110 0.0 0.0 0.00 1.65 1.65 95 1014.0
20260510033029 10 109 0.0 0.0 0.00 1.65 1.65 94 1014.2
20260510032525 10 109 0.0 0.0 0.00 1.65 1.65 94 1014.2
20260510032020 10 106 0.0 0.0 0.00 1.65 1.65 94 1014.2
20260510031516 10 106 0.0 0.0 0.00 1.65 1.65 94 1014.2
20260510031012 10 106 0.0 0.0 0.00 1.65 1.65 94 1014.0
20260510030508 11 105 0.0 0.0 0.00 1.65 1.65 94 1014.0
20260510030005 11 105 0.0 0.0 0.00 1.65 1.65 94 1014.1
20260510025502 11 106 0.0 0.0 0.00 1.65 1.65 94 1014.1
20260510025000 11 106 0.0 0.0 0.00 1.65 1.65 94 1014.6
20260510024456 11 106 0.0 0.0 0.00 1.65 1.65 94 1014.4
20260510023952 11 108 0.0 0.0 0.00 1.65 1.65 94 1014.2
20260510023448 11 108 0.0 0.0 0.00 1.65 1.65 94 1014.3
20260510022945 11 107 0.0 0.0 0.00 1.65 1.65 94 1014.4
20260510022445 11 107 0.0 0.0 0.00 1.65 1.65 94 1014.5
20260510021944 11 106 0.0 0.0 0.00 1.65 1.65 94 1014.3
20260510021442 11 106 0.0 0.0 0.00 1.65 1.65 94 1014.4
20260510020938 11 106 0.0 0.0 0.00 1.65 1.65 94 1014.2
20260510020433 11 105 0.0 0.0 0.00 1.65 1.65 94 1014.3
20260510015929 11 105 0.0 0.0 0.00 1.65 1.65 94 1014.2
20260510015425 11 119 0.0 1.6 0.00 1.65 1.65 94 1014.3
20260510014920 11 122 0.0 1.6 0.00 1.65 1.65 94 1014.1
20260510014418 11 105 1.6 1.6 0.00 1.65 1.65 94 1014.0
20260510013914 11 113 0.0 0.0 0.00 1.65 1.65 94 1014.0
20260510013409 11 111 0.0 1.6 0.00 1.65 1.65 94 1014.0
20260510012905 11 113 0.0 0.0 0.00 1.65 1.65 94 1014.1
20260510012400 11 113 0.0 0.0 0.00 1.65 1.65 94 1013.9
20260510011854 11 113 0.0 0.0 0.00 1.65 1.65 94 1013.8
20260510011350 11 117 0.0 0.0 0.00 1.65 1.65 94 1013.9
20260510010846 11 112 0.0 0.0 0.00 1.65 1.65 94 1013.8
20260510010344 11 113 0.0 0.0 0.00 1.65 1.65 94 1013.9
20260510005840 11 117 0.0 0.0 0.00 1.65 1.65 94 1013.5
20260510005337 11 117 0.0 0.0 0.00 1.65 1.65 94 1013.6
20260510004834 11 118 0.0 0.0 0.00 1.65 1.65 94 1013.8
20260510004332 11 116 0.0 0.0 0.00 1.65 1.65 94 1013.4
20260510003829 11 117 0.0 0.0 0.00 1.65 1.65 94 1013.5
20260510003326 11 117 0.0 0.0 0.00 1.65 1.65 94 1013.9
20260510002825 11 117 0.0 0.0 0.00 1.65 1.65 94 1013.4
20260510002322 11 117 0.0 0.0 0.00 1.65 1.65 94 1013.5
20260510001819 11 117 0.0 0.0 0.00 1.65 1.65 94 1013.7
20260510001317 11 117 0.0 0.0 0.00 1.65 1.65 94 1013.6
20260510000812 11 122 0.0 0.0 0.00 1.65 1.65 94 1013.5
20260510000311 11 123 0.0 0.0 0.00 1.65 1.65 94 1013.5
20260509235807 11 121 0.0 0.0 0.00 1.65 1.65 94 1013.3
20260509235306 11 121 0.0 0.0 0.00 1.65 1.65 94 1013.2
20260509234759 11 118 0.0 0.0 0.00 1.65 1.65 94 1013.3
20260509234256 12 120 0.0 0.0 0.00 1.65 1.65 93 1013.3
20260509233755 12 119 0.0 0.0 0.00 1.65 1.65 93 1013.5
20260509233252 12 122 0.0 1.6 0.00 1.65 1.65 93 1013.4
20260509232748 12 134 1.6 1.6 0.00 1.65 1.65 93 1013.4
20260509232245 12 118 0.0 0.0 0.00 1.65 1.65 93 1013.5